This is the latest recevied weather packets stored in our database for station/object N8QF-1. If no packets are shown the sender has not sent any weather packets the latest 10 day(s).
| Time | Temp. | Humidity | Pressure | Rain* | Wind** | Luminosity | Snow |
|---|---|---|---|---|---|---|---|
| 1777908748 | 18.33° C | 54% | 1008.7 hPa | 0 mm | - | - | - |
| 1777908145 | 18.33° C | 55% | 1008.9 hPa | 0 mm | - | - | - |
| 1777907844 | 18.33° C | 57% | 1009 hPa | 0 mm | - | - | - |
| 1777907543 | 17.22° C | 56% | 1008.9 hPa | 0 mm | - | - | - |
| 1777907243 | 17.22° C | 56% | 1009.1 hPa | 0 mm | - | - | - |
| 1777906942 | 17.22° C | 55% | 1008.8 hPa | 0 mm | - | - | - |
| 1777906642 | 17.22° C | 56% | 1008.9 hPa | 0 mm | - | - | - |
| 1777906341 | 17.22° C | 57% | 1009 hPa | 0 mm | - | - | - |
| 1777906041 | 17.22° C | 56% | 1008.9 hPa | 0 mm | - | - | - |
| 1777905740 | 17.22° C | 58% | 1008.9 hPa | 0 mm | - | - | - |
| 1777905440 | 17.22° C | 58% | 1009.1 hPa | 0 mm | - | - | - |
| 1777905139 | 16.67° C | 57% | 1009.1 hPa | 0 mm | - | - | - |
| 1777904839 | 16.11° C | 58% | 1009 hPa | 0 mm | - | - | - |
| 1777904538 | 16.11° C | 58% | 1009.1 hPa | 0 mm | - | - | - |
| 1777904238 | 16.11° C | 59% | 1009 hPa | 0 mm | - | - | - |
| 1777903936 | 16.11° C | 59% | 1009.2 hPa | 0 mm | - | - | - |
| 1777903636 | 16.11° C | 59% | 1009.3 hPa | 0 mm | - | - | - |
| 1777903335 | 16.11° C | 59% | 1009.5 hPa | 0 mm | - | - | - |
| 1777903035 | 15.56° C | 58% | 1009.6 hPa | 0 mm | - | - | - |
| 1777902734 | 15.56° C | 60% | 1009.5 hPa | 0 mm | - | - | - |
| 1777902133 | 15° C | 62% | 1009.6 hPa | 0 mm | - | - | - |
| 1777901833 | 15° C | 61% | 1009.7 hPa | 0 mm | - | - | - |
| 1777900931 | 14.44° C | 62% | 1009.6 hPa | 0 mm | - | - | - |
| 1777900630 | 14.44° C | 62% | 1009.6 hPa | 0 mm | - | - | - |
| 1777900029 | 14.44° C | 62% | 1009.3 hPa | 0 mm | - | - | - |
* Rain latest hour (hover to see other rain measurements)
** Current wind speed in m/s (hover to see current wind gust speed)